When you browse on this site, cookies collect data to enhance your experience and personalize the content and advertising you see.
Visit our Privacy Policy to learn more. By continuing to use the site, you agree to this use of cookies and data.
  • In Switzerland
  • List of Countries
  • For 7 days
  • Water Temperature
  • Weather Map
  • Weather Widgets
  • user-avatar
    Login

    Hourly Weather Porozy

    Today, 18 August, Sunday

    Time Temperature Precipitation Wind Pressure Humidity
    00:00 +12°C° 0 mm 1 mps 756 mmHg 82%
    01:00 +12°C° 0 mm 1 mps 756 mmHg 84%
    02:00 +10°C° 0 mm 0 mps 756 mmHg 85%
    03:00 +10°C° 0 mm 0 mps 756 mmHg 86%
    04:00 +11°C° 0 mm 1 mps 756 mmHg 87%
    05:00 +11°C° 0 mm 1 mps 756 mmHg 87%
    06:00 +13°C° 0 mm 1 mps 756 mmHg 81%
    07:00 +15°C° 0 mm 1 mps 755 mmHg 75%
    08:00 +18°C° 0 mm 1 mps 755 mmHg 69%
    09:00 +20°C° 0 mm 1 mps 755 mmHg 65%
    10:00 +21°C° 0 mm 1 mps 755 mmHg 60%
    11:00 +23°C° 0 mm 1 mps 755 mmHg 56%
    12:00 +24°C° 0 mm 1 mps 755 mmHg 54%
    13:00 +24°C° 0 mm 1 mps 754 mmHg 51%
    14:00 +25°C° 0 mm 1 mps 754 mmHg 49%
    15:00 +24°C° 0 mm 1 mps 754 mmHg 51%
    16:00 +24°C° 0 mm 1 mps 754 mmHg 52%
    17:00 +24°C° 0 mm 1 mps 754 mmHg 54%
    18:00 +22°C° 0 mm 1 mps 754 mmHg 61%
    19:00 +20°C° 0 mm 1 mps 754 mmHg 68%
    20:00 +16°C° 0 mm 1 mps 754 mmHg 74%
    21:00 +16°C° 0 mm 1 mps 754 mmHg 77%
    22:00 +15°C° 0 mm 1 mps 754 mmHg 79%
    23:00 +15°C° 0 mm 2 mps 754 mmHg 82%

    Tomorrow, 19 August, Monday

    Time Temperature Precipitation Wind Pressure Humidity
    00:00 +15°C° 0 mm 2 mps 754 mmHg 83%
    01:00 +15°C° 0 mm 2 mps 754 mmHg 85%
    02:00 +14°C° 0 mm 2 mps 754 mmHg 87%
    03:00 +14°C° 0 mm 2 mps 754 mmHg 85%
    04:00 +13°C° 0 mm 3 mps 753 mmHg 84%
    05:00 +13°C° 0 mm 3 mps 753 mmHg 83%
    06:00 +16°C° 0 mm 3 mps 753 mmHg 82%
    07:00 +17°C° 0 mm 3 mps 753 mmHg 80%
    08:00 +18°C° 0 mm 4 mps 753 mmHg 79%
    09:00 +19°C° 0 mm 4 mps 753 mmHg 77%
    10:00 +20°C° 0 mm 4 mps 753 mmHg 76%
    11:00 +22°C° 0 mm 4 mps 753 mmHg 74%
    12:00 +22°C° 0 mm 3 mps 753 mmHg 75%
    13:00 +22°C° 0 mm 3 mps 754 mmHg 76%
    14:00 +24°C° 0 mm 3 mps 754 mmHg 77%
    15:00 +24°C° 0.3 mm 3 mps 754 mmHg 79%
    16:00 +24°C° 0.3 mm 2 mps 754 mmHg 81%
    17:00 +24°C° 0.3 mm 2 mps 754 mmHg 83%
    18:00 +23°C° 0.3 mm 2 mps 755 mmHg 87%
    19:00 +20°C° 0.3 mm 2 mps 755 mmHg 91%
    20:00 +19°C° 0.3 mm 2 mps 755 mmHg 95%
    21:00 +18°C° 0 mm 2 mps 756 mmHg 95%
    22:00 +18°C° 0 mm 2 mps 756 mmHg 95%
    23:00 +18°C° 0 mm 1 mps 757 mmHg 95%

    Day after tomorrow, 20 August, Tuesday

    Time Temperature Precipitation Wind Pressure Humidity
    00:00 +16°C° 0 mm 1 mps 757 mmHg 94%
    01:00 +16°C° 0 mm 1 mps 757 mmHg 93%
    02:00 +14°C° 0 mm 0 mps 758 mmHg 92%
    03:00 +14°C° 0 mm 0 mps 758 mmHg 92%
    04:00 +14°C° 0 mm 0 mps 759 mmHg 91%
    05:00 +13°C° 0 mm 0 mps 759 mmHg 91%
    06:00 +16°C° 0 mm 1 mps 759 mmHg 89%
    07:00 +18°C° 0 mm 1 mps 759 mmHg 86%
    08:00 +20°C° 0 mm 1 mps 760 mmHg 83%
    09:00 +21°C° 0.2 mm 1 mps 760 mmHg 78%
    10:00 +21°C° 0.2 mm 2 mps 760 mmHg 72%
    11:00 +24°C° 0.2 mm 2 mps 760 mmHg 67%
    12:00 +24°C° 0.3 mm 2 mps 760 mmHg 65%
    13:00 +24°C° 0.3 mm 2 mps 760 mmHg 63%
    14:00 +25°C° 0.3 mm 2 mps 760 mmHg 61%
    15:00 +25°C° 0.1 mm 2 mps 760 mmHg 62%
    16:00 +25°C° 0.1 mm 1 mps 760 mmHg 63%
    17:00 +25°C° 0.1 mm 1 mps 760 mmHg 64%
    18:00 +23°C° 0 mm 1 mps 760 mmHg 68%
    19:00 +21°C° 0 mm 1 mps 760 mmHg 73%
    20:00 +19°C° 0 mm 1 mps 761 mmHg 77%
    21:00 +18°C° 0 mm 1 mps 761 mmHg 77%
    22:00 +16°C° 0 mm 1 mps 761 mmHg 77%
    23:00 +16°C° 0 mm 1 mps 762 mmHg 77%

    21 August, Wednesday

    Time Temperature Precipitation Wind Pressure Humidity
    00:00 +14°C° 0 mm 0 mps 762 mmHg 78%
    01:00 +14°C° 0 mm 0 mps 762 mmHg 78%
    02:00 +13°C° 0 mm 0 mps 762 mmHg 79%
    03:00 +14°C° 0 mm 1 mps 762 mmHg 79%
    04:00 +14°C° 0 mm 1 mps 762 mmHg 80%
    05:00 +14°C° 0 mm 1 mps 762 mmHg 80%
    06:00 +15°C° 0 mm 1 mps 762 mmHg 79%
    07:00 +18°C° 0 mm 1 mps 762 mmHg 78%
    08:00 +19°C° 0 mm 1 mps 762 mmHg 77%
    09:00 +20°C° 0 mm 1 mps 762 mmHg 74%
    10:00 +22°C° 0 mm 1 mps 762 mmHg 70%
    11:00 +23°C° 0 mm 1 mps 762 mmHg 67%
    12:00 +22°C° 0.8 mm 1 mps 762 mmHg 73%
    13:00 +20°C° 0.8 mm 2 mps 762 mmHg 79%
    14:00 +20°C° 0.8 mm 2 mps 761 mmHg 85%
    15:00 +19°C° 0.4 mm 2 mps 761 mmHg 87%
    16:00 +18°C° 0.4 mm 2 mps 761 mmHg 89%
    17:00 +18°C° 0.4 mm 1 mps 761 mmHg 91%
    18:00 +18°C° 0.4 mm 1 mps 761 mmHg 93%
    19:00 +16°C° 0.4 mm 1 mps 761 mmHg 94%
    20:00 +15°C° 0.4 mm 1 mps 761 mmHg 95%
    21:00 +15°C° 0.1 mm 1 mps 761 mmHg 95%
    22:00 +15°C° 0.1 mm 1 mps 761 mmHg 95%
    23:00 +15°C° 0.1 mm 2 mps 761 mmHg 95%

    22 August, Thursday

    Time Temperature Precipitation Wind Pressure Humidity
    00:00 +14°C° 0 mm 2 mps 761 mmHg 95%
    01:00 +14°C° 0 mm 2 mps 761 mmHg 94%
    02:00 +13°C° 0 mm 2 mps 762 mmHg 94%
    03:00 +12°C° 0 mm 2 mps 762 mmHg 95%
    04:00 +12°C° 0 mm 2 mps 762 mmHg 95%
    05:00 +10°C° 0 mm 2 mps 762 mmHg 96%
    06:00 +12°C° 0 mm 2 mps 762 mmHg 93%
    07:00 +14°C° 0 mm 2 mps 762 mmHg 90%
    08:00 +15°C° 0 mm 2 mps 762 mmHg 87%
    09:00 +17°C° 0 mm 2 mps 763 mmHg 79%
    10:00 +18°C° 0 mm 2 mps 763 mmHg 70%
    11:00 +19°C° 0 mm 3 mps 763 mmHg 62%
    12:00 +20°C° 0 mm 3 mps 763 mmHg 59%
    13:00 +21°C° 0 mm 3 mps 763 mmHg 56%
    14:00 +21°C° 0 mm 3 mps 763 mmHg 53%
    15:00 +21°C° 0 mm 2 mps 762 mmHg 58%
    16:00 +20°C° 0 mm 2 mps 762 mmHg 62%
    17:00 +20°C° 0 mm 2 mps 762 mmHg 67%
    18:00 +18°C° 0 mm 2 mps 762 mmHg 72%
    19:00 +17°C° 0 mm 2 mps 762 mmHg 77%
    20:00 +15°C° 0 mm 1 mps 762 mmHg 82%
    21:00 +14°C° 0 mm 1 mps 763 mmHg 83%
    22:00 +13°C° 0 mm 1 mps 763 mmHg 85%
    23:00 +13°C° 0 mm 1 mps 763 mmHg 86%

    23 August, Friday

    Time Temperature Precipitation Wind Pressure Humidity
    00:00 +12°C° 0 mm 1 mps 763 mmHg 86%
    01:00 +12°C° 0 mm 1 mps 763 mmHg 85%
    02:00 +12°C° 0 mm 1 mps 763 mmHg 85%
    03:00 +11°C° 0 mm 1 mps 763 mmHg 87%
    04:00 +11°C° 0 mm 1 mps 763 mmHg 89%
    05:00 +11°C° 0 mm 1 mps 763 mmHg 92%
    06:00 +12°C° 0 mm 1 mps 763 mmHg 87%
    07:00 +14°C° 0 mm 1 mps 763 mmHg 82%
    08:00 +15°C° 0 mm 1 mps 763 mmHg 78%
    09:00 +17°C° 0 mm 2 mps 763 mmHg 72%
    10:00 +18°C° 0 mm 2 mps 763 mmHg 66%
    11:00 +19°C° 0 mm 3 mps 763 mmHg 61%
    12:00 +18°C° 0.1 mm 3 mps 762 mmHg 68%
    13:00 +16°C° 0.1 mm 3 mps 762 mmHg 74%
    14:00 +14°C° 0.1 mm 3 mps 762 mmHg 81%
    15:00 +14°C° 0.1 mm 3 mps 762 mmHg 82%
    16:00 +16°C° 0.1 mm 3 mps 762 mmHg 83%
    17:00 +16°C° 0.1 mm 2 mps 762 mmHg 84%
    18:00 +15°C° 0.1 mm 2 mps 762 mmHg 88%
    19:00 +15°C° 0.1 mm 2 mps 762 mmHg 91%
    20:00 +14°C° 0.1 mm 2 mps 762 mmHg 95%
    21:00 +13°C° 0 mm 2 mps 762 mmHg 96%
    22:00 +13°C° 0 mm 2 mps 762 mmHg 96%
    23:00 +12°C° 0 mm 2 mps 763 mmHg 97%
    Show more